Weather History for Port Huron, MI

Change the Weather History Date:

Thursday, December 6, 2012

  Actual Average (KMTC) Record (KMTC)
Temperature  
Mean Temperature 32 °F -  
Max Temperature 39 °F 38 °F 68 °F (1998)
Min Temperature 24 °F 26 °F 6 °F (1964)
Degree Days  
Heating Degree Days 34    
Moisture  
Dew Point 29 °F    
Average Humidity 83    
Maximum Humidity 93    
Minimum Humidity 75    
Precipitation  
Precipitation 0.00 in - - ()
Sea Level Pressure  
Sea Level Pressure 30.16 in    
Wind  
Wind Speed 4 mph (SSE)    
Max Wind Speed 15 mph    
Max Gust Speed 18 mph    
Visibility 10 miles    
Events      
Averages and records for this station are not official NWS values.
T = Trace of Precipitation, MM = Missing Value Source: NWS Daily Summary

Daily Weather History Graph

Daily Weather History Graph

Search for Another Location

Airport:

Trip Planner

Search our weather history database for the weather conditions in past years. The results will help you decide how hot, cold, wet, or windy it might be!

Date:

Astronomy

Dec. 06, 2012 Rise Set
Actual Time 7:46 AM EST 4:55 PM EST
Civil Twilight 7:14 AM EST 5:27 PM EST
Nautical Twilight 6:39 AM EST 6:03 PM EST
Astronomical Twilight 6:05 AM EST 6:37 PM EST
Moon No Moon Rise 12:30 PM EST (12/6)
Length of Visible Light 10h 12m
Length of Day
9h 08m
Waning Gibbous, 49% of the Moon is Illuminated
Dec 6
Waning Gibbous
Dec 13
New
Dec 20
First Quarter
Dec 28
Full
Jan 4
Last Quarter

Hourly Weather History & Observations

Time (EST) Temp. Windchill Dew Point Humidity Pressure Visibility Wind Dir Wind Speed Gust Speed Precip Events Conditions
12:17 AM 28.4 °F - 23.0 °F 80% 30.37 in 10.0 mi Calm Calm - N/A   Clear
12:37 AM 28.4 °F - 23.0 °F 80% 30.36 in 10.0 mi Calm Calm - N/A   Clear
12:57 AM 26.6 °F - 23.0 °F 86% 30.35 in 10.0 mi Calm Calm - N/A   Clear
1:17 AM 26.6 °F - 24.8 °F 93% 30.35 in 10.0 mi Calm Calm - N/A   Clear
1:37 AM 26.6 °F - 23.0 °F 86% 30.35 in 10.0 mi Calm Calm - N/A   Clear
1:57 AM 24.8 °F - 23.0 °F 93% 30.34 in 10.0 mi Calm Calm - N/A   Clear
2:17 AM 24.8 °F - 23.0 °F 93% 30.33 in 10.0 mi Calm Calm - N/A   Clear
2:37 AM 24.8 °F - 23.0 °F 93% 30.33 in 10.0 mi Calm Calm - N/A   Clear
2:57 AM 26.6 °F - 24.8 °F 93% 30.33 in 10.0 mi Calm Calm - N/A   Clear
3:17 AM 26.6 °F - 24.8 °F 93% 30.33 in 10.0 mi Calm Calm - N/A   Clear
3:37 AM 24.8 °F - 23.0 °F 93% 30.32 in 10.0 mi Calm Calm - N/A   Clear
3:57 AM 26.6 °F 21.2 °F 24.8 °F 93% 30.32 in 10.0 mi SE 4.6 mph - N/A   Clear
4:17 AM 28.4 °F 22.2 °F 24.8 °F 86% 30.31 in 10.0 mi SE 5.8 mph - N/A   Clear
4:37 AM 28.4 °F 24.6 °F 24.8 °F 86% 30.31 in 10.0 mi SE 3.5 mph - N/A   Clear
4:57 AM 28.4 °F 24.6 °F 24.8 °F 86% 30.31 in 10.0 mi SE 3.5 mph - N/A   Clear
5:17 AM 28.4 °F 23.3 °F 24.8 °F 86% 30.30 in 10.0 mi SE 4.6 mph - N/A   Clear
5:37 AM 28.4 °F 23.3 °F 24.8 °F 86% 30.31 in 10.0 mi SSE 4.6 mph - N/A   Clear
5:57 AM 28.4 °F 24.6 °F 24.8 °F 86% 30.31 in 10.0 mi SE 3.5 mph - N/A   Clear
6:17 AM 28.4 °F 24.6 °F 24.8 °F 86% 30.30 in 10.0 mi SE 3.5 mph - N/A   Clear
6:37 AM 28.4 °F 24.6 °F 24.8 °F 86% 30.30 in 10.0 mi SSE 3.5 mph - N/A   Clear
6:57 AM 28.4 °F 24.6 °F 24.8 °F 86% 30.29 in 10.0 mi SE 3.5 mph - N/A   Clear
7:17 AM 28.4 °F 24.6 °F 24.8 °F 86% 30.29 in 10.0 mi ESE 3.5 mph - N/A   Clear
7:37 AM 28.4 °F - 24.8 °F 86% 30.28 in 10.0 mi Calm Calm - N/A   Clear
7:57 AM 30.2 °F 25.4 °F 24.8 °F 80% 30.27 in 10.0 mi ESE 4.6 mph - N/A   Clear
8:17 AM 30.2 °F 25.4 °F 24.8 °F 80% 30.26 in 10.0 mi ESE 4.6 mph - N/A   Scattered Clouds
8:37 AM 30.2 °F 25.4 °F 26.6 °F 86% 30.25 in 10.0 mi ESE 4.6 mph - N/A   Scattered Clouds
8:57 AM 32.0 °F 25.6 °F 26.6 °F 80% 30.25 in 10.0 mi ESE 6.9 mph - N/A   Clear
9:17 AM 32.0 °F 26.4 °F 26.6 °F 80% 30.24 in 10.0 mi SE 5.8 mph - N/A   Clear
9:37 AM 32.0 °F 24.2 °F 26.6 °F 80% 30.23 in 10.0 mi SE 9.2 mph - N/A   Clear
9:57 AM 33.8 °F 27.0 °F 28.4 °F 81% 30.22 in 10.0 mi SE 8.1 mph - N/A   Clear
10:17 AM 33.8 °F 28.6 °F 28.4 °F 81% 30.22 in 10.0 mi SSE 5.8 mph - N/A   Scattered Clouds
10:37 AM 33.8 °F 28.6 °F 28.4 °F 81% 30.22 in 10.0 mi SE 5.8 mph - N/A   Overcast
10:57 AM 35.6 °F 28.6 °F 30.2 °F 81% 30.20 in 10.0 mi SSE 9.2 mph - N/A   Overcast
11:17 AM 37.4 °F 28.5 °F 30.2 °F 75% 30.19 in 10.0 mi South 15.0 mph - N/A   Overcast
11:37 AM 37.4 °F 30.8 °F 30.2 °F 75% 30.18 in 10.0 mi SSE 9.2 mph 18.4 mph N/A   Mostly Cloudy
11:57 AM 37.4 °F 29.8 °F 30.2 °F 75% 30.16 in 10.0 mi South 11.5 mph - N/A   Mostly Cloudy
12:17 PM 37.4 °F 29.8 °F 30.2 °F 75% 30.14 in 10.0 mi SSE 11.5 mph 17.3 mph N/A   Mostly Cloudy
12:37 PM 39.2 °F 32.0 °F 32.0 °F 75% 30.14 in 10.0 mi South 11.5 mph - N/A   Mostly Cloudy
12:57 PM 39.2 °F 31.6 °F 32.0 °F 75% 30.13 in 10.0 mi South 12.7 mph 18.4 mph N/A   Mostly Cloudy
1:17 PM 39.2 °F 32.5 °F 32.0 °F 75% 30.12 in 10.0 mi South 10.4 mph - N/A   Mostly Cloudy
1:37 PM 39.2 °F 33.0 °F 32.0 °F 75% 30.10 in 10.0 mi South 9.2 mph - N/A   Mostly Cloudy
1:57 PM 39.2 °F 32.0 °F 32.0 °F 75% 30.09 in 10.0 mi SSW 11.5 mph - N/A   Overcast
2:17 PM 39.2 °F 33.6 °F 32.0 °F 75% 30.09 in 10.0 mi SSW 8.1 mph - N/A   Mostly Cloudy
2:37 PM 39.2 °F 32.5 °F 32.0 °F 75% 30.09 in 10.0 mi South 10.4 mph - N/A   Mostly Cloudy
2:57 PM 39.2 °F 32.5 °F 32.0 °F 75% 30.09 in 10.0 mi SSW 10.4 mph - N/A   Mostly Cloudy
3:17 PM 39.2 °F 33.0 °F 32.0 °F 75% 30.08 in 10.0 mi South 9.2 mph - N/A   Mostly Cloudy
3:37 PM 39.2 °F 34.2 °F 32.0 °F 75% 30.08 in 10.0 mi SSW 6.9 mph - N/A   Scattered Clouds
3:57 PM 39.2 °F 33.6 °F 32.0 °F 75% 30.07 in 10.0 mi SSW 8.1 mph - N/A   Clear
4:17 PM 39.2 °F 33.6 °F 32.0 °F 75% 30.06 in 10.0 mi SSE 8.1 mph - N/A   Clear
4:37 PM 39.2 °F 35.9 °F 32.0 °F 75% 30.06 in 10.0 mi SSE 4.6 mph - N/A   Clear
4:57 PM 37.4 °F 32.1 °F 32.0 °F 81% 30.04 in 10.0 mi SE 6.9 mph - N/A   Clear
5:17 PM 37.4 °F 32.8 °F 32.0 °F 81% 30.04 in 10.0 mi SSE 5.8 mph - N/A   Clear
5:37 PM 37.4 °F 33.8 °F 32.0 °F 81% 30.04 in 10.0 mi South 4.6 mph - N/A   Clear
5:57 PM 37.4 °F 33.8 °F 32.0 °F 81% 30.04 in 10.0 mi SSE 4.6 mph - N/A   Scattered Clouds
6:17 PM 37.4 °F 31.4 °F 32.0 °F 81% 30.04 in 10.0 mi SSE 8.1 mph - N/A   Clear
6:37 PM 37.4 °F 32.8 °F 32.0 °F 81% 30.04 in 10.0 mi South 5.8 mph - N/A   Clear
6:57 PM 37.4 °F 32.8 °F 32.0 °F 81% 30.04 in 10.0 mi SSW 5.8 mph - N/A   Clear
7:17 PM 37.4 °F 30.3 °F 32.0 °F 81% 30.02 in 10.0 mi SSE 10.4 mph - N/A   Clear
7:37 PM 35.6 °F 29.9 °F 32.0 °F 87% 30.03 in 10.0 mi South 6.9 mph - N/A   Clear
7:57 PM 35.6 °F 29.2 °F 32.0 °F 87% 30.02 in 10.0 mi South 8.1 mph - N/A   Clear
8:17 PM 35.6 °F 29.9 °F 32.0 °F 87% 30.02 in 10.0 mi South 6.9 mph - N/A   Clear
8:37 PM 35.6 °F 29.2 °F 32.0 °F 87% 30.01 in 10.0 mi South 8.1 mph - N/A   Scattered Clouds
8:57 PM 35.6 °F 29.9 °F 32.0 °F 87% 30.00 in 10.0 mi South 6.9 mph - N/A   Scattered Clouds
9:17 PM 35.6 °F 29.2 °F 30.2 °F 81% 29.99 in 10.0 mi South 8.1 mph - N/A   Clear
9:37 PM 35.6 °F 29.9 °F 32.0 °F 87% 30.00 in 10.0 mi SSW 6.9 mph - N/A   Clear
9:57 PM 35.6 °F 30.7 °F 32.0 °F 87% 29.99 in 10.0 mi SSW 5.8 mph - N/A   Clear
10:17 PM 35.6 °F 31.7 °F 30.2 °F 81% 29.99 in 10.0 mi South 4.6 mph - N/A   Clear
10:37 PM 35.6 °F 32.8 °F 32.0 °F 87% 29.99 in 10.0 mi SSW 3.5 mph - N/A   Clear
10:57 PM 35.6 °F 30.7 °F 32.0 °F 87% 29.97 in 10.0 mi South 5.8 mph - N/A   Clear
11:17 PM 35.6 °F 30.7 °F 32.0 °F 87% 29.98 in 10.0 mi South 5.8 mph - N/A   Clear
11:37 PM 37.4 °F 32.1 °F 32.0 °F 81% 29.98 in 10.0 mi SSW 6.9 mph - N/A   Scattered Clouds
11:57 PM 37.4 °F 33.8 °F 32.0 °F 81% 29.98 in 10.0 mi South 4.6 mph - N/A   Scattered Clouds